Date,TemperatureHighF,TemperatureAvgF,TemperatureLowF,DewpointHighF,DewpointAvgF,DewpointLowF,HumidityHigh,HumidityAvg,HumidityLow,PressureMaxIn,PressureMinIn,WindSpeedMaxMPH,WindSpeedAvgMPH,GustSpeedMaxMPH,PrecipitationSumIn
2013-2-1,21.8,14.1,7.4,14.9,8.5,1.0,85,78,70,30.20,29.84,15,6,15,0.00
2013-2-2,25.9,16.5,5.6,20.6,11.6,0.5,85,81,78,30.15,29.89,11,4,11,0.00
2013-2-3,24.8,12.8,-1.6,18.7,7.4,-5.8,88,79,71,29.96,29.79,16,3,16,0.00
2013-2-4,29.2,20.7,15.7,23.3,15.6,9.6,84,81,75,29.97,29.82,6,1,6,0.00
2013-2-5,28.1,20.0,1.4,24.7,15.1,-3.1,89,81,70,29.91,29.76,12,3,12,0.00
2013-2-6,41.9,25.4,6.5,31.3,17.8,2.3,92,74,53,30.24,29.91,13,2,13,0.05
2013-2-7,40.0,30.8,23.9,30.3,23.5,16.5,85,74,67,30.22,29.81,9,3,9,0.00
2013-2-8,30.2,25.9,11.0,26.6,20.4,5.2,90,80,63,30.29,29.75,22,5,22,0.00
2013-2-9,41.2,18.7,-0.9,30.1,11.1,-5.3,90,73,55,30.38,30.22,9,1,9,0.10
2013-2-10,40.3,30.3,18.9,35.7,24.6,14.2,89,80,65,30.22,29.65,11,3,11,0.03
2013-2-11,43.9,36.8,31.1,41.6,31.4,25.3,93,81,73,29.83,29.52,25,9,25,0.20
2013-2-12,33.5,30.4,27.4,25.8,23.9,20.6,81,77,72,30.00,29.83,18,5,18,0.00
2013-2-13,48.1,32.7,26.3,33.9,24.4,20.5,81,72,53,29.89,29.69,9,2,9,0.00
2013-2-14,39.2,33.4,26.3,34.7,28.6,21.8,88,83,77,29.81,29.63,22,4,22,0.01
2013-2-15,33.5,27.8,20.7,27.9,18.4,10.9,80,68,54,30.07,29.81,17,5,17,0.00
2013-2-16,29.2,20.4,13.5,22.5,13.0,7.1,80,73,60,30.05,29.93,14,2,14,0.00
2013-2-17,29.7,16.7,4.3,14.2,7.4,-0.8,83,68,46,30.14,30.00,15,3,15,0.00
2013-2-18,45.0,31.9,11.5,37.0,21.5,4.5,74,66,52,30.14,29.56,14,3,14,0.00
2013-2-19,44.3,28.6,17.5,39.6,23.3,10.8,90,80,72,29.88,29.38,23,9,23,0.06
2013-2-20,22.7,19.7,15.5,15.5,12.0,8.3,77,72,65,30.18,29.88,18,7,18,0.00
2013-2-21,28.8,22.9,20.5,20.4,15.8,13.4,81,74,65,30.32,30.17,13,3,13,0.00
2013-2-22,32.9,27.4,21.8,30.3,23.5,15.7,91,85,77,30.20,29.84,12,4,12,0.00
2013-2-23,37.1,30.4,22.9,29.1,23.3,16.6,88,75,64,29.88,29.82,13,4,13,0.05
2013-2-24,38.3,28.5,21.6,28.5,21.6,15.5,85,76,62,30.10,29.85,14,3,14,0.06
2013-2-25,49.0,30.6,12.6,36.8,21.5,8.2,91,70,50,30.18,30.04,6,1,6,0.02
2013-2-26,35.5,31.1,24.5,31.1,25.7,17.6,92,81,68,30.07,29.46,15,4,15,0.21
2013-2-27,36.7,34.1,32.8,33.7,31.4,30.3,92,90,87,29.54,29.41,7,2,7,0.36
2013-2-28,37.3,33.1,29.3,33.3,29.9,25.2,93,88,81,29.92,29.51,19,4,19,0.07